| time (UTC) | temp F | wind direction | speed knots | gust knots | rain 1hr in | rain 24hr in | rain mn in | humidity % | barometer mb |
| 20260510180254 | 65 | 28 | 1.7 | 1.7 | 0.00 | 0.00 | 0.00 | 82 | 1015.8 |
| 20260510175751 | 65 | 10 | 2.6 | 5.2 | 0.00 | 0.00 | 0.00 | 82 | 1015.6 |
| 20260510175246 | 66 | 27 | 0.9 | 2.6 | 0.00 | 0.00 | 0.00 | 84 | 1015.9 |
| 20260510174743 | 64 | 344 | 0.0 | 0.9 | 0.00 | 0.00 | 0.00 | 86 | 1015.9 |
| 20260510174241 | 64 | 8 | 0.9 | 1.7 | 0.00 | 0.00 | 0.00 | 84 | 1015.7 |
| 20260510173737 | 64 | 34 | 1.7 | 5.2 | 0.00 | 0.00 | 0.00 | 85 | 1015.9 |
| 20260510173232 | 64 | 9 | 1.7 | 2.6 | 0.00 | 0.00 | 0.00 | 83 | 1015.9 |
| 20260510172728 | 65 | 321 | 0.9 | 3.5 | 0.00 | 0.00 | 0.00 | 84 | 1016.0 |
| 20260510172225 | 65 | 344 | 0.9 | 1.7 | 0.00 | 0.00 | 0.00 | 83 | 1015.9 |
| 20260510171721 | 65 | 23 | 2.6 | 2.6 | 0.00 | 0.00 | 0.00 | 81 | 1015.7 |
| 20260510171219 | 65 | 256 | 1.7 | 2.6 | 0.00 | 0.00 | 0.00 | 82 | 1015.8 |
| 20260510170716 | 64 | 308 | 1.7 | 3.5 | 0.00 | 0.00 | 0.00 | 82 | 1015.7 |
| 20260510170212 | 65 | 315 | 2.6 | 3.5 | 0.00 | 0.00 | 0.00 | 82 | 1015.7 |
| 20260510165708 | 64 | 316 | 2.6 | 3.5 | 0.00 | 0.00 | 0.00 | 81 | 1015.8 |
| 20260510165204 | 64 | 14 | 0.0 | 1.7 | 0.00 | 0.00 | 0.00 | 84 | 1015.7 |
| 20260510164701 | 64 | 316 | 1.7 | 3.5 | 0.00 | 0.00 | 0.00 | 82 | 1015.6 |
| 20260510164158 | 66 | 39 | 2.6 | 3.5 | 0.00 | 0.00 | 0.00 | 80 | 1015.7 |
| 20260510163659 | 65 | 312 | 1.7 | 2.6 | 0.00 | 0.00 | 0.00 | 83 | 1015.6 |
| 20260510163155 | 64 | 314 | 0.9 | 2.6 | 0.00 | 0.00 | 0.00 | 84 | 1015.3 |
| 20260510162654 | 64 | 32 | 0.9 | 1.7 | 0.00 | 0.00 | 0.00 | 84 | 1015.5 |
| 20260510162151 | 65 | 359 | 0.9 | 1.7 | 0.00 | 0.00 | 0.00 | 82 | 1015.4 |
| 20260510161647 | 64 | 318 | 1.7 | 2.6 | 0.00 | 0.00 | 0.00 | 84 | 1015.5 |
| 20260510161144 | 64 | 335 | 0.0 | 0.9 | 0.00 | 0.00 | 0.00 | 86 | 1015.5 |
| 20260510160641 | 63 | 358 | 0.0 | 0.0 | 0.00 | 0.00 | 0.00 | 85 | 1015.6 |
| 20260510160136 | 63 | 5 | 0.0 | 0.0 | 0.00 | 0.00 | 0.00 | 86 | 1015.5 |
| 20260510155632 | 63 | 5 | 0.0 | 0.0 | 0.00 | 0.00 | 0.00 | 84 | 1015.4 |
| 20260510155128 | 64 | 54 | 1.7 | 2.6 | 0.00 | 0.00 | 0.00 | 82 | 1015.6 |
| 20260510154624 | 65 | 72 | 0.9 | 0.9 | 0.00 | 0.00 | 0.00 | 76 | 1015.6 |
| 20260510154119 | 65 | 306 | 0.9 | 0.9 | 0.00 | 0.00 | 0.00 | 75 | 1015.6 |
| 20260510153615 | 66 | 311 | 1.7 | 2.6 | 0.00 | 0.00 | 0.00 | 73 | 1015.8 |
| 20260510153111 | 67 | 319 | 2.6 | 2.6 | 0.00 | 0.00 | 0.00 | 74 | 1015.6 |
| 20260510152608 | 66 | 312 | 3.5 | 3.5 | 0.00 | 0.00 | 0.00 | 73 | 1015.6 |
| 20260510152104 | 67 | 307 | 3.5 | 7.0 | 0.00 | 0.00 | 0.00 | 72 | 1015.7 |
| 20260510151601 | 67 | 315 | 1.7 | 5.2 | 0.00 | 0.00 | 0.00 | 71 | 1015.8 |
| 20260510151100 | 69 | 312 | 5.2 | 7.8 | 0.00 | 0.00 | 0.00 | 68 | 1015.3 |
| 20260510150600 | 69 | 300 | 0.9 | 0.9 | 0.00 | 0.00 | 0.00 | 65 | 1015.1 |
| 20260510150055 | 69 | 315 | 3.5 | 6.1 | 0.00 | 0.00 | 0.00 | 65 | 1014.8 |
| 20260510145552 | 70 | 312 | 2.6 | 3.5 | 0.00 | 0.00 | 0.00 | 67 | 1014.8 |
| 20260510145049 | 69 | 173 | 2.6 | 2.6 | 0.00 | 0.00 | 0.00 | 66 | 1014.7 |
| 20260510144546 | 68 | 181 | 0.0 | 1.7 | 0.00 | 0.00 | 0.00 | 67 | 1014.9 |
| 20260510144042 | 68 | 300 | 0.9 | 3.5 | 0.00 | 0.00 | 0.00 | 66 | 1014.9 |
| 20260510143537 | 68 | 299 | 1.7 | 3.5 | 0.00 | 0.00 | 0.00 | 70 | 1014.9 |
| 20260510143034 | 68 | 308 | 2.6 | 3.5 | 0.00 | 0.00 | 0.00 | 69 | 1014.8 |
| 20260510142530 | 68 | 300 | 0.9 | 2.6 | 0.00 | 0.00 | 0.00 | 67 | 1015.1 |
| 20260510142027 | 67 | 311 | 2.6 | 3.5 | 0.00 | 0.00 | 0.00 | 69 | 1015.1 |
| 20260510141524 | 67 | 274 | 0.9 | 1.7 | 0.00 | 0.00 | 0.00 | 72 | 1015.2 |
| 20260510141021 | 66 | 287 | 0.9 | 2.6 | 0.00 | 0.00 | 0.00 | 71 | 1015.1 |
| 20260510140517 | 66 | 320 | 3.5 | 5.2 | 0.00 | 0.00 | 0.00 | 73 | 1015.1 |
| 20260510140017 | 66 | 270 | 0.9 | 1.7 | 0.00 | 0.00 | 0.00 | 72 | 1014.8 |
| 20260510135513 | 66 | 230 | 1.7 | 5.2 | 0.00 | 0.00 | 0.00 | 69 | 1014.6 |
| 20260510135010 | 66 | 308 | 4.3 | 9.6 | 0.00 | 0.00 | 0.00 | 71 | 1014.7 |
| 20260510134507 | 66 | 269 | 1.7 | 5.2 | 0.00 | 0.00 | 0.00 | 71 | 1014.6 |
| 20260510134003 | 66 | 244 | 0.9 | 1.7 | 0.00 | 0.00 | 0.00 | 71 | 1014.6 |
| 20260510133459 | 65 | 221 | 0.9 | 0.9 | 0.00 | 0.00 | 0.00 | 74 | 1014.6 |
| 20260510132955 | 65 | 221 | 0.9 | 0.9 | 0.00 | 0.00 | 0.00 | 74 | 1014.9 |
| 20260510132453 | 65 | 183 | 1.7 | 1.7 | 0.00 | 0.00 | 0.00 | 73 | 1014.7 |
| 20260510131949 | 65 | 302 | 1.7 | 1.7 | 0.00 | 0.00 | 0.00 | 73 | 1014.6 |
| 20260510131447 | 65 | 231 | 0.9 | 1.7 | 0.00 | 0.00 | 0.00 | 74 | 1014.7 |
| 20260510130944 | 64 | 91 | 0.9 | 1.7 | 0.00 | 0.00 | 0.00 | 74 | 1014.7 |
| 20260510130440 | 63 | 245 | 2.6 | 2.6 | 0.00 | 0.00 | 0.00 | 75 | 1014.7 |
| 20260510125938 | 63 | 177 | 1.7 | 2.6 | 0.00 | 0.00 | 0.00 | 76 | 1014.5 |
| 20260510125434 | 63 | 278 | 2.6 | 3.5 | 0.00 | 0.00 | 0.00 | 76 | 1014.9 |
| 20260510124930 | 63 | 175 | 0.9 | 1.7 | 0.00 | 0.00 | 0.00 | 78 | 1014.8 |
| 20260510124427 | 62 | 312 | 0.9 | 0.9 | 0.00 | 0.00 | 0.00 | 78 | 1015.1 |
| 20260510123924 | 62 | 314 | 1.7 | 2.6 | 0.00 | 0.00 | 0.00 | 80 | 1015.1 |
| 20260510123419 | 62 | 309 | 1.7 | 2.6 | 0.00 | 0.00 | 0.00 | 79 | 1015.1 |
| 20260510122916 | 61 | 243 | 0.9 | 1.7 | 0.00 | 0.00 | 0.00 | 79 | 1014.8 |
| 20260510122410 | 61 | 110 | 0.0 | 0.0 | 0.00 | 0.00 | 0.00 | 86 | 1014.7 |
| 20260510121907 | 59 | 272 | 4.3 | 7.0 | 0.00 | 0.00 | 0.00 | 83 | 1014.5 |
| 20260510121405 | 58 | 79 | 0.0 | 0.0 | 0.00 | 0.00 | 0.00 | 93 | 1014.6 |
| 20260510120902 | 55 | 116 | 0.0 | 0.9 | 0.00 | 0.00 | 0.00 | 96 | 1014.5 |
| 20260510120359 | 54 | 326 | 0.0 | 0.0 | 0.00 | 0.00 | 0.00 | 97 | 1014.5 |
| 20260510115854 | 54 | 326 | 0.0 | 0.0 | 0.00 | 0.00 | 0.00 | 97 | 1014.5 |
| 20260510115352 | 53 | 326 | 0.0 | 0.0 | 0.00 | 0.00 | 0.00 | 97 | 1014.5 |
| 20260510114847 | 53 | 326 | 0.0 | 0.0 | 0.00 | 0.00 | 0.00 | 97 | 1014.1 |
| 20260510114345 | 52 | 327 | 0.0 | 0.0 | 0.00 | 0.00 | 0.00 | 98 | 1014.1 |
| 20260510113845 | 52 | 326 | 0.0 | 0.0 | 0.00 | 0.00 | 0.00 | 98 | 1014.1 |
| 20260510113341 | 51 | 326 | 0.0 | 0.0 | 0.00 | 0.00 | 0.00 | 99 | 1013.9 |
| 20260510112838 | 49 | 296 | 0.0 | 0.0 | 0.00 | 0.00 | 0.00 | 99 | 1013.7 |
| 20260510112336 | 49 | 296 | 0.0 | 0.0 | 0.00 | 0.00 | 0.00 | 99 | 1013.9 |
| 20260510111831 | 48 | 297 | 0.0 | 0.0 | 0.00 | 0.00 | 0.00 | 99 | 1013.7 |
| 20260510111328 | 48 | 297 | 0.0 | 0.0 | 0.00 | 0.00 | 0.00 | 99 | 1013.7 |
| 20260510110822 | 47 | 285 | 0.9 | 0.9 | 0.00 | 0.00 | 0.00 | 99 | 1013.5 |
| 20260510110320 | 48 | 328 | 0.0 | 0.0 | 0.00 | 0.00 | 0.00 | 99 | 1013.4 |
| 20260510105816 | 0 | 0.0 | 0.0 | 0.00 | 0.00 | 0.00 | 1013.2 | ||
| 20260510105315 | 0 | 0.0 | 0.0 | 0.00 | 0.00 | 0.00 | 1013.3 | ||
| 20260510104812 | 47 | 328 | 0.0 | 0.9 | 0.00 | 0.00 | 0.00 | 99 | 1013.3 |
| 20260510104310 | 47 | 328 | 0.0 | 0.9 | 0.00 | 0.00 | 0.00 | 99 | 1013.0 |
| 20260510103806 | 0 | 0.0 | 0.0 | 0.00 | 0.00 | 0.00 | 1013.2 | ||
| 20260510103303 | 0 | 0.0 | 0.0 | 0.00 | 0.00 | 0.00 | 1013.1 | ||
| 20260510102803 | 0 | 0.0 | 0.0 | 0.00 | 0.00 | 0.00 | 1013.2 | ||
| 20260510102259 | 0 | 0.0 | 0.0 | 0.00 | 0.00 | 0.00 | 1013.2 | ||
| 20260510101756 | 0 | 0.0 | 0.0 | 0.00 | 0.00 | 0.00 | 1013.3 | ||
| 20260510101255 | 0 | 0.0 | 0.0 | 0.00 | 0.00 | 0.00 | 1012.9 | ||
| 20260510100750 | 0 | 0.0 | 0.0 | 0.00 | 0.00 | 0.00 | 1012.7 | ||
| 20260510100249 | 0 | 0.0 | 0.0 | 0.00 | 0.00 | 0.00 | 1012.5 | ||
| 20260510095749 | 0 | 0.0 | 0.0 | 0.00 | 0.00 | 0.00 | 1012.6 | ||
| 20260510095245 | 0 | 0.0 | 0.0 | 0.00 | 0.00 | 0.00 | 1012.7 | ||
| 20260510094744 | 0 | 0.0 | 0.0 | 0.00 | 0.00 | 0.00 | 1012.5 | ||
| 20260510094240 | 0 | 0.0 | 0.0 | 0.00 | 0.00 | 0.00 | 1012.7 | ||
| 20260510093736 | 0 | 0.0 | 0.0 | 0.00 | 0.00 | 0.00 | 1012.5 | ||
| 20260510093233 | 0 | 0.0 | 0.0 | 0.00 | 0.00 | 0.00 | 1012.4 | ||
| 20260510092729 | 0 | 0.0 | 0.0 | 0.00 | 0.00 | 0.00 | 1012.4 | ||
| 20260510092225 | 0 | 0.0 | 0.0 | 0.00 | 0.00 | 0.00 | 1012.7 | ||
| 20260510091721 | 0 | 0.0 | 0.0 | 0.00 | 0.00 | 0.00 | 1012.2 | ||
| 20260510091218 | 0 | 0.0 | 0.0 | 0.00 | 0.00 | 0.00 | 1012.2 | ||
| 20260510090714 | 0 | 0.0 | 0.0 | 0.00 | 0.00 | 0.00 | 1012.3 | ||
| 20260510090211 | 46 | 337 | 0.0 | 0.0 | 0.00 | 0.00 | 0.00 | 99 | 1012.4 |
| 20260510085706 | 46 | 337 | 0.0 | 0.0 | 0.00 | 0.00 | 0.00 | 99 | 1012.2 |
| 20260510085202 | 0 | 0.0 | 0.0 | 0.00 | 0.00 | 0.00 | 1012.1 | ||
| 20260510084658 | 47 | 338 | 0.0 | 0.0 | 0.00 | 0.00 | 0.00 | 99 | 1012.2 |
| 20260510084155 | 47 | 338 | 0.0 | 0.0 | 0.00 | 0.00 | 0.00 | 99 | 1012.0 |
| 20260510083652 | 47 | 337 | 0.0 | 0.0 | 0.00 | 0.00 | 0.00 | 99 | 1012.0 |
| 20260510083148 | 47 | 338 | 0.0 | 0.0 | 0.00 | 0.00 | 0.00 | 99 | 1012.1 |
| 20260510082644 | 47 | 338 | 0.0 | 0.0 | 0.00 | 0.00 | 0.00 | 99 | 1012.1 |
| 20260510082140 | 47 | 338 | 0.0 | 0.0 | 0.00 | 0.00 | 0.00 | 99 | 1012.0 |
| 20260510081635 | 48 | 337 | 0.0 | 0.9 | 0.00 | 0.00 | 0.00 | 99 | 1012.0 |
| 20260510081131 | 47 | 21 | 0.0 | 0.9 | 0.00 | 0.00 | 0.00 | 99 | 1012.2 |
| 20260510080630 | 47 | 307 | 0.0 | 0.0 | 0.00 | 0.00 | 0.00 | 99 | 1011.9 |
| 20260510080127 | 48 | 307 | 0.0 | 1.7 | 0.00 | 0.00 | 0.00 | 99 | 1011.8 |
| 20260510075625 | 47 | 284 | 0.0 | 0.0 | 0.00 | 0.00 | 0.00 | 99 | 1011.7 |
| 20260510075122 | 48 | 275 | 0.0 | 0.0 | 0.00 | 0.00 | 0.00 | 99 | 1011.6 |
| 20260510074619 | 48 | 275 | 0.0 | 0.0 | 0.00 | 0.00 | 0.00 | 99 | 1011.8 |
| 20260510074115 | 48 | 275 | 0.0 | 0.0 | 0.00 | 0.00 | 0.00 | 99 | 1011.5 |
| 20260510073611 | 48 | 285 | 0.0 | 0.0 | 0.00 | 0.00 | 0.00 | 99 | 1011.7 |
| 20260510073108 | 48 | 285 | 0.0 | 0.0 | 0.00 | 0.00 | 0.00 | 99 | 1011.8 |
| 20260510072605 | 48 | 285 | 0.0 | 0.0 | 0.00 | 0.00 | 0.00 | 99 | 1011.8 |
| 20260510072101 | 48 | 285 | 0.0 | 0.0 | 0.00 | 0.00 | 0.00 | 99 | 1011.9 |
| 20260510071557 | 48 | 285 | 0.0 | 0.0 | 0.00 | 0.00 | 0.00 | 99 | 1011.7 |
| 20260510071055 | 48 | 285 | 0.0 | 0.0 | 0.00 | 0.00 | 0.00 | 99 | 1011.7 |
| 20260510070551 | 48 | 285 | 0.9 | 0.9 | 0.00 | 0.00 | 0.00 | 99 | 1011.8 |
| 20260510070049 | 48 | 285 | 0.0 | 0.0 | 0.00 | 0.00 | 0.00 | 99 | 1011.9 |
| 20260510065545 | 49 | 284 | 0.0 | 0.0 | 0.00 | 0.00 | 0.00 | 99 | 1011.7 |
| 20260510065041 | 48 | 285 | 0.0 | 0.0 | 0.00 | 0.00 | 0.00 | 99 | 1011.8 |
| 20260510064537 | 49 | 285 | 0.0 | 1.7 | 0.00 | 0.00 | 0.00 | 98 | 1011.7 |
| 20260510064034 | 49 | 310 | 1.7 | 1.7 | 0.00 | 0.00 | 0.00 | 98 | 1011.9 |
| 20260510063531 | 49 | 309 | 0.0 | 0.0 | 0.00 | 0.00 | 0.00 | 98 | 1011.7 |
| 20260510063028 | 49 | 312 | 0.0 | 0.0 | 0.00 | 0.00 | 0.00 | 98 | 1011.9 |
| 20260510062524 | 49 | 313 | 0.0 | 0.0 | 0.00 | 0.00 | 0.00 | 98 | 1011.9 |
| 20260510062019 | 49 | 315 | 0.0 | 0.9 | 0.00 | 0.00 | 0.00 | 98 | 1011.8 |
| 20260510061516 | 49 | 9 | 0.0 | 0.0 | 0.00 | 0.00 | 0.00 | 98 | 1011.8 |
| 20260510061013 | 49 | 254 | 1.7 | 1.7 | 0.00 | 0.00 | 0.00 | 98 | 1011.8 |
| 20260510060509 | 49 | 82 | 0.0 | 0.0 | 0.00 | 0.00 | 0.00 | 98 | 1011.9 |
| 20260510060006 | 49 | 82 | 0.0 | 0.0 | 0.00 | 0.00 | 0.00 | 98 | 1011.9 |
| 20260510055501 | 50 | 81 | 0.0 | 0.0 | 0.00 | 0.00 | 0.00 | 98 | 1012.0 |
| 20260510055000 | 50 | 82 | 0.0 | 0.0 | 0.00 | 0.00 | 0.00 | 98 | 1012.0 |
| 20260510054455 | 50 | 82 | 0.0 | 0.0 | 0.00 | 0.00 | 0.00 | 98 | 1012.0 |
| 20260510053950 | 50 | 82 | 0.0 | 0.0 | 0.00 | 0.00 | 0.00 | 98 | 1012.1 |
| 20260510053445 | 50 | 81 | 0.0 | 0.0 | 0.00 | 0.00 | 0.00 | 98 | 1012.1 |
| 20260510052942 | 49 | 81 | 0.0 | 0.0 | 0.00 | 0.00 | 0.00 | 98 | 1012.0 |
| 20260510052438 | 50 | 81 | 0.0 | 0.0 | 0.00 | 0.00 | 0.00 | 98 | 1012.2 |
| 20260510051934 | 50 | 82 | 0.0 | 0.0 | 0.00 | 0.00 | 0.00 | 97 | 1012.3 |
| 20260510051431 | 51 | 90 | 0.0 | 0.0 | 0.00 | 0.00 | 0.00 | 98 | 1012.3 |
| 20260510050927 | 51 | 90 | 0.0 | 0.0 | 0.00 | 0.00 | 0.00 | 98 | 1012.1 |
| 20260510050424 | 50 | 90 | 0.0 | 0.0 | 0.00 | 0.00 | 0.00 | 98 | 1012.1 |
| 20260510045921 | 50 | 90 | 0.0 | 0.0 | 0.00 | 0.00 | 0.00 | 98 | 1012.3 |
| 20260510045418 | 51 | 90 | 0.0 | 0.0 | 0.00 | 0.00 | 0.00 | 98 | 1012.2 |
| 20260510044915 | 51 | 90 | 0.0 | 0.0 | 0.00 | 0.00 | 0.00 | 98 | 1012.1 |
| 20260510044412 | 50 | 90 | 0.0 | 0.0 | 0.00 | 0.00 | 0.00 | 98 | 1012.2 |
| 20260510043909 | 50 | 90 | 0.0 | 0.0 | 0.00 | 0.00 | 0.00 | 98 | 1012.3 |
| 20260510043404 | 50 | 90 | 0.0 | 0.0 | 0.00 | 0.00 | 0.00 | 98 | 1012.3 |
| 20260510042903 | 50 | 90 | 0.0 | 0.0 | 0.00 | 0.00 | 0.00 | 98 | 1012.2 |
| 20260510042358 | 49 | 89 | 0.0 | 0.0 | 0.00 | 0.00 | 0.00 | 98 | 1012.2 |
| 20260510041854 | 50 | 90 | 0.0 | 0.0 | 0.00 | 0.00 | 0.00 | 98 | 1012.0 |
| 20260510041352 | 49 | 285 | 0.0 | 0.0 | 0.00 | 0.00 | 0.00 | 98 | 1012.1 |
| 20260510040849 | 49 | 284 | 0.0 | 0.0 | 0.00 | 0.00 | 0.00 | 98 | 1012.0 |
| 20260510040346 | 49 | 285 | 0.0 | 0.0 | 0.00 | 0.00 | 0.00 | 98 | 1011.9 |
| 20260510035841 | 49 | 285 | 0.0 | 0.0 | 0.00 | 0.00 | 0.00 | 97 | 1012.0 |
| 20260510035337 | 49 | 284 | 0.0 | 0.0 | 0.00 | 0.00 | 0.00 | 97 | 1012.0 |
| 20260510034833 | 49 | 285 | 0.0 | 0.0 | 0.00 | 0.00 | 0.00 | 97 | 1011.8 |
| 20260510034331 | 49 | 285 | 0.0 | 0.0 | 0.00 | 0.00 | 0.00 | 97 | 1012.0 |
| 20260510033827 | 49 | 285 | 0.0 | 0.0 | 0.00 | 0.00 | 0.00 | 97 | 1012.0 |
| 20260510033324 | 49 | 285 | 0.0 | 0.0 | 0.00 | 0.00 | 0.00 | 97 | 1012.0 |
| 20260510032821 | 50 | 285 | 0.0 | 0.0 | 0.00 | 0.00 | 0.00 | 97 | 1011.8 |
| 20260510032318 | 50 | 285 | 0.0 | 0.0 | 0.00 | 0.00 | 0.00 | 97 | 1011.6 |
| 20260510031813 | 50 | 285 | 0.0 | 0.0 | 0.00 | 0.00 | 0.00 | 97 | 1011.6 |
| 20260510031309 | 50 | 285 | 0.0 | 0.0 | 0.00 | 0.00 | 0.00 | 97 | 1011.6 |
| 20260510030809 | 50 | 285 | 0.0 | 0.0 | 0.00 | 0.00 | 0.00 | 97 | 1011.6 |
| 20260510030306 | 50 | 285 | 0.0 | 0.0 | 0.00 | 0.00 | 0.00 | 97 | 1011.4 |
| 20260510025803 | 51 | 285 | 0.0 | 0.0 | 0.00 | 0.00 | 0.00 | 97 | 1011.5 |
| 20260510025300 | 51 | 285 | 0.0 | 0.0 | 0.00 | 0.00 | 0.00 | 96 | 1011.6 |
| 20260510024757 | 51 | 285 | 0.0 | 0.0 | 0.00 | 0.00 | 0.00 | 96 | 1011.5 |
| 20260510024254 | 51 | 285 | 0.0 | 0.0 | 0.00 | 0.00 | 0.00 | 96 | 1011.3 |
| 20260510023750 | 51 | 285 | 0.0 | 0.0 | 0.00 | 0.00 | 0.00 | 96 | 1011.4 |
| 20260510023247 | 51 | 285 | 0.0 | 0.0 | 0.00 | 0.00 | 0.00 | 96 | 1011.6 |
| 20260510022743 | 51 | 285 | 0.0 | 0.0 | 0.00 | 0.00 | 0.00 | 96 | 1011.5 |
| 20260510022243 | 52 | 285 | 0.0 | 0.0 | 0.00 | 0.00 | 0.00 | 95 | 1011.5 |
| 20260510021742 | 52 | 284 | 0.0 | 0.0 | 0.00 | 0.00 | 0.00 | 95 | 1011.2 |
| 20260510021241 | 52 | 285 | 0.0 | 0.0 | 0.00 | 0.00 | 0.00 | 95 | 1011.3 |
| 20260510020736 | 52 | 246 | 0.0 | 0.0 | 0.00 | 0.00 | 0.00 | 95 | 1011.1 |
| 20260510020231 | 52 | 246 | 0.0 | 0.0 | 0.00 | 0.00 | 0.00 | 94 | 1011.1 |
| 20260510015728 | 53 | 246 | 0.0 | 0.0 | 0.00 | 0.00 | 0.00 | 94 | 1011.1 |
| 20260510015224 | 53 | 246 | 0.0 | 0.0 | 0.00 | 0.00 | 0.00 | 94 | 1010.8 |
| 20260510014719 | 53 | 245 | 0.0 | 0.0 | 0.00 | 0.00 | 0.00 | 93 | 1010.5 |
| 20260510014217 | 54 | 130 | 0.0 | 0.0 | 0.00 | 0.00 | 0.00 | 93 | 1010.4 |
| 20260510013712 | 54 | 130 | 0.0 | 0.9 | 0.00 | 0.00 | 0.00 | 92 | 1010.5 |
| 20260510013208 | 54 | 130 | 0.0 | 1.7 | 0.00 | 0.00 | 0.00 | 92 | 1010.5 |
| 20260510012707 | 54 | 130 | 0.0 | 0.0 | 0.00 | 0.00 | 0.00 | 92 | 1010.1 |
| 20260510012203 | 55 | 130 | 0.0 | 0.0 | 0.00 | 0.00 | 0.00 | 92 | 1010.2 |
| 20260510011657 | 55 | 130 | 0.0 | 0.0 | 0.00 | 0.00 | 0.00 | 91 | 1010.4 |
| 20260510011148 | 56 | 130 | 0.0 | 0.0 | 0.00 | 0.00 | 0.00 | 90 | 1010.2 |
| 20260510010644 | 56 | 130 | 0.0 | 0.0 | 0.00 | 0.00 | 0.00 | 90 | 1010.1 |
| 20260510010141 | 56 | 130 | 0.0 | 0.0 | 0.00 | 0.00 | 0.00 | 89 | 1010.0 |
| 20260510005637 | 57 | 130 | 0.0 | 0.0 | 0.00 | 0.00 | 0.00 | 88 | 1010.1 |
| 20260510005134 | 57 | 130 | 0.0 | 0.0 | 0.00 | 0.00 | 0.00 | 87 | 1010.0 |
| 20260510004633 | 57 | 131 | 0.0 | 0.0 | 0.00 | 0.00 | 0.00 | 86 | 1009.9 |
| 20260510004125 | 58 | 131 | 0.0 | 0.0 | 0.00 | 0.00 | 0.00 | 85 | 1009.9 |
| 20260510003622 | 58 | 119 | 0.0 | 0.0 | 0.00 | 0.00 | 0.00 | 85 | 1009.9 |
| 20260510003118 | 59 | 118 | 0.0 | 0.0 | 0.00 | 0.00 | 0.00 | 84 | 1009.8 |
| 20260510002618 | 59 | 152 | 0.0 | 0.9 | 0.00 | 0.00 | 0.00 | 82 | 1009.9 |
| 20260510002115 | 60 | 152 | 0.9 | 0.9 | 0.00 | 0.00 | 0.00 | 81 | 1009.6 |
| 20260510001612 | 60 | 167 | 0.9 | 1.7 | 0.00 | 0.00 | 0.00 | 80 | 1009.5 |
| 20260510001111 | 62 | 171 | 0.0 | 0.0 | 0.00 | 0.00 | 0.00 | 76 | 1009.7 |
| 20260510000611 | 62 | 172 | 0.0 | 0.9 | 0.00 | 0.00 | 0.00 | 74 | 1009.6 |
| 20260510000108 | 63 | 172 | 0.9 | 0.9 | 0.00 | 0.00 | 0.00 | 72 | 1009.4 |
| 20260509235604 | 64 | 176 | 1.7 | 1.7 | 0.00 | 0.00 | 0.00 | 70 | 1009.4 |
| 20260509235101 | 67 | 204 | 0.9 | 1.7 | 0.00 | 0.00 | 0.00 | 66 | 1009.4 |
| 20260509234557 | 68 | 284 | 0.9 | 2.6 | 0.00 | 0.00 | 0.00 | 58 | 1009.2 |
| 20260509234055 | 68 | 321 | 0.9 | 2.6 | 0.00 | 0.00 | 0.00 | 58 | 1009.3 |
| 20260509233552 | 68 | 310 | 1.7 | 5.2 | 0.00 | 0.00 | 0.00 | 57 | 1009.3 |
| 20260509233050 | 69 | 306 | 1.7 | 1.7 | 0.00 | 0.00 | 0.00 | 56 | 1009.2 |
| 20260509232546 | 69 | 236 | 3.5 | 3.5 | 0.00 | 0.00 | 0.00 | 55 | 1009.3 |
| 20260509232043 | 70 | 243 | 1.7 | 2.6 | 0.00 | 0.00 | 0.00 | 55 | 1009.2 |
| 20260509231539 | 70 | 293 | 3.5 | 6.1 | 0.00 | 0.00 | 0.00 | 54 | 1009.2 |
| 20260509231037 | 70 | 316 | 2.6 | 5.2 | 0.00 | 0.00 | 0.00 | 55 | 1009.1 |
| 20260509230534 | 70 | 234 | 0.9 | 3.5 | 0.00 | 0.00 | 0.00 | 55 | 1009.2 |
| 20260509230031 | 70 | 288 | 4.3 | 7.0 | 0.00 | 0.00 | 0.00 | 53 | 1009.0 |
| 20260509225526 | 70 | 186 | 0.9 | 3.5 | 0.00 | 0.00 | 0.00 | 54 | 1009.0 |
| 20260509225022 | 70 | 276 | 1.7 | 2.6 | 0.00 | 0.00 | 0.00 | 52 | 1009.2 |
| 20260509224518 | 70 | 293 | 1.7 | 3.5 | 0.00 | 0.00 | 0.00 | 55 | 1009.3 |
| 20260509224014 | 70 | 244 | 3.5 | 6.1 | 0.00 | 0.00 | 0.00 | 54 | 1009.3 |
| 20260509223511 | 70 | 326 | 4.3 | 7.0 | 0.00 | 0.00 | 0.00 | 52 | 1009.3 |
| 20260509223010 | 71 | 255 | 1.7 | 2.6 | 0.00 | 0.00 | 0.00 | 53 | 1009.4 |
| 20260509222505 | 71 | 247 | 3.5 | 3.5 | 0.00 | 0.00 | 0.00 | 53 | 1009.5 |
| 20260509222001 | 71 | 273 | 0.9 | 5.2 | 0.00 | 0.00 | 0.00 | 51 | 1009.5 |
| 20260509221457 | 71 | 311 | 3.5 | 6.1 | 0.00 | 0.00 | 0.00 | 53 | 1009.6 |
| 20260509220953 | 71 | 272 | 0.9 | 2.6 | 0.00 | 0.00 | 0.00 | 54 | 1009.6 |
| 20260509220444 | 71 | 232 | 3.5 | 3.5 | 0.00 | 0.00 | 0.00 | 55 | 1009.7 |
| 20260509215940 | 69 | 323 | 1.7 | 9.6 | 0.00 | 0.00 | 0.00 | 56 | 1009.5 |
| 20260509215435 | 69 | 249 | 2.6 | 6.1 | 0.00 | 0.00 | 0.00 | 55 | 1009.5 |
| 20260509214933 | 70 | 297 | 2.6 | 5.2 | 0.00 | 0.00 | 0.00 | 55 | 1009.6 |
| 20260509214430 | 70 | 319 | 6.1 | 8.7 | 0.00 | 0.00 | 0.00 | 53 | 1009.8 |
| 20260509213927 | 70 | 256 | 3.5 | 6.1 | 0.00 | 0.00 | 0.00 | 54 | 1009.5 |
| 20260509213422 | 71 | 312 | 3.5 | 5.2 | 0.00 | 0.00 | 0.00 | 55 | 1009.6 |
| 20260509212921 | 69 | 238 | 2.6 | 2.6 | 0.00 | 0.00 | 0.00 | 57 | 1009.6 |
| 20260509212418 | 69 | 301 | 4.3 | 11.3 | 0.00 | 0.00 | 0.00 | 59 | 1009.6 |
| 20260509211914 | 69 | 332 | 1.7 | 5.2 | 0.00 | 0.00 | 0.00 | 58 | 1009.5 |
| 20260509211410 | 70 | 294 | 2.6 | 7.0 | 0.00 | 0.00 | 0.00 | 57 | 1009.6 |
| 20260509210906 | 69 | 296 | 3.5 | 6.1 | 0.00 | 0.00 | 0.00 | 59 | 1009.7 |
| 20260509210404 | 70 | 316 | 2.6 | 6.1 | 0.00 | 0.00 | 0.00 | 59 | 1009.4 |
| 20260509205904 | 68 | 313 | 2.6 | 2.6 | 0.00 | 0.00 | 0.00 | 61 | 1009.6 |
| 20260509205403 | 69 | 148 | 0.9 | 5.2 | 0.00 | 0.00 | 0.00 | 57 | 1009.8 |
| 20260509204900 | 69 | 298 | 0.0 | 0.9 | 0.00 | 0.00 | 0.00 | 58 | 1009.6 |
| 20260509204356 | 68 | 260 | 4.3 | 6.1 | 0.00 | 0.00 | 0.00 | 60 | 1009.6 |
| 20260509203853 | 68 | 251 | 2.6 | 5.2 | 0.00 | 0.00 | 0.00 | 60 | 1009.5 |
| 20260509203349 | 69 | 311 | 7.0 | 12.2 | 0.00 | 0.00 | 0.00 | 59 | 1009.6 |
| 20260509202846 | 70 | 323 | 2.6 | 5.2 | 0.00 | 0.00 | 0.00 | 57 | 1009.6 |
| 20260509202342 | 68 | 317 | 3.5 | 3.5 | 0.00 | 0.00 | 0.00 | 63 | 1009.7 |
| 20260509201837 | 69 | 309 | 2.6 | 7.0 | 0.00 | 0.00 | 0.00 | 59 | 1009.9 |
| 20260509201333 | 69 | 314 | 6.1 | 9.6 | 0.00 | 0.00 | 0.00 | 61 | 1009.9 |
| 20260509200830 | 68 | 317 | 1.7 | 5.2 | 0.00 | 0.00 | 0.00 | 64 | 1009.8 |
| 20260509200325 | 68 | 285 | 3.5 | 3.5 | 0.00 | 0.00 | 0.00 | 62 | 1009.9 |
| 20260509195822 | 67 | 312 | 6.1 | 7.8 | 0.00 | 0.00 | 0.00 | 60 | 1009.8 |
| 20260509195322 | 67 | 324 | 5.2 | 7.8 | 0.00 | 0.00 | 0.00 | 63 | 1010.1 |
| 20260509194816 | 67 | 327 | 5.2 | 8.7 | 0.00 | 0.00 | 0.00 | 63 | 1010.1 |
| 20260509194313 | 68 | 322 | 1.7 | 5.2 | 0.00 | 0.00 | 0.00 | 60 | 1010.2 |
| 20260509193810 | 68 | 327 | 4.3 | 7.8 | 0.00 | 0.00 | 0.00 | 64 | 1010.3 |
| 20260509193310 | 67 | 247 | 3.5 | 5.2 | 0.00 | 0.00 | 0.00 | 59 | 1010.2 |
| 20260509192806 | 66 | 262 | 2.6 | 3.5 | 0.00 | 0.00 | 0.00 | 62 | 1010.1 |
| 20260509192305 | 66 | 322 | 1.7 | 2.6 | 0.00 | 0.00 | 0.00 | 63 | 1010.1 |
| 20260509191757 | 66 | 227 | 2.6 | 3.5 | 0.00 | 0.00 | 0.00 | 61 | 1010.2 |
| 20260509191254 | 65 | 249 | 4.3 | 6.1 | 0.00 | 0.00 | 0.00 | 62 | 1010.2 |
| 20260509190749 | 65 | 177 | 6.1 | 7.8 | 0.00 | 0.00 | 0.00 | 62 | 1010.0 |
| 20260509190247 | 66 | 312 | 5.2 | 7.0 | 0.00 | 0.00 | 0.00 | 62 | 1010.1 |
| 20260509185744 | 65 | 261 | 2.6 | 3.5 | 0.00 | 0.00 | 0.00 | 62 | 1010.0 |
| 20260509185240 | 65 | 229 | 2.6 | 5.2 | 0.00 | 0.00 | 0.00 | 61 | 1010.0 |
| 20260509184738 | 65 | 316 | 4.3 | 7.8 | 0.00 | 0.00 | 0.00 | 61 | 1010.1 |
| 20260509184235 | 66 | 313 | 4.3 | 7.0 | 0.00 | 0.00 | 0.00 | 58 | 1010.2 |
| 20260509183732 | 66 | 307 | 1.7 | 5.2 | 0.00 | 0.00 | 0.00 | 59 | 1010.1 |
| 20260509183227 | 65 | 311 | 3.5 | 5.2 | 0.00 | 0.00 | 0.00 | 62 | 1010.2 |
| 20260509182722 | 65 | 255 | 2.6 | 7.0 | 0.00 | 0.00 | 0.00 | 60 | 1010.1 |
| 20260509182220 | 65 | 291 | 2.6 | 7.8 | 0.00 | 0.00 | 0.00 | 58 | 1010.3 |
| 20260509181717 | 65 | 273 | 3.5 | 7.8 | 0.00 | 0.00 | 0.00 | 61 | 1010.3 |
| 20260509181215 | 65 | 247 | 3.5 | 9.6 | 0.00 | 0.00 | 0.00 | 59 | 1010.3 |
| 20260509180712 | 66 | 247 | 5.2 | 7.8 | 0.00 | 0.00 | 0.00 | 60 | 1010.0 |